Location: Unspecified
(54.1780°N, 4.6260°W)
Time: 21:40:28
(UTC+00:00)

Terra - Pass Details

Date: 07 August 2025
Orbit: 687 x 692 km, 98.0° (Epoch: 17 April)

Event Time Altitude Azimuth Distance (km) Brightness Sun altitude
Rises 19:41:00 0° 129° (SE) 3,060 4.5 2.4°
Reaches altitude 10° 19:43:28 10° 118° (ESE) 2,147 3.7 2.0°
Drops below altitude 10° 19:51:27 10° 2° (N) 2,156 4.7 1.0°
Enters shadow 20:46:55 -69° 166° (SSE) 12,606 8.1 -5.9°
Maximum altitude 21:24:46 52° 260° (W) 865 2.5 -10.0°
